Regional Weather Roundup
Issued by NWS New Orleans/Baton Rouge, LA

Home | Current Version | Previous Version | Text Only | Print | Product List | Glossary On
Versions: 1 2 3 4 5 6 7 8 9 10 11 12 13 14 15 16 17 18 19 20 21 22 23 24 25 26 27 28 29 30 31 32 33 34 35 36 37 38 39 40 41 42 43 44 45 46 47 48 49 50
000
ASUS44 KLIX 080110
RWRLIX
NEW ORLEANS REGIONAL WEATHER ROUNDUP
NATIONAL WEATHER SERVICE NEW ORLEANS LA
700 PM CST SUN FEB 07 2016

NOTE: "FAIR" INDICATES FEW OR NO CLOUDS BELOW 12,000 FEET WITH NO
      SIGNIFICANT WEATHER AND/OR OBSTRUCTIONS TO VISIBILITY.
      SKY/WX - SKY CONDITION AND SIGNIFICANT WEATHER.
      TMP - AIR TEMPERATURE.     DP    - DEWPOINT TEMPERATURE.
      RH  - RELATIVE HUMIDITY.   PRES  - PRESSURE.
      HI  - HEAT INDEX.          WCI   - WIND CHILL INDEX.

*  THESE STATIONS ARE NOT NWS OR FAA STATIONS AND ARE NOT UNDER
   NWS QUALITY CONTROL.

LAZ038-040-048-061>063-065>067-069-080200-
SOUTHEAST LOUISIANA

CITY           SKY/WX    TMP DP  RH WIND       PRES   REMARKS
N.O. AUDUBON   NOT AVBL
N.O. INTL ARPT CLEAR     53  32  44 SW12      30.17R
N.O. LAKEFRONT CLEAR     52  35  52 SW14      30.17R
N.O. DOWNTOWN*   N/A     55  34  44 MISG      30.18R
RESERVE*         N/A     51  29  42 W7        30.17S
SLIDELL        CLEAR     44  34  67 CALM      30.15S
BATON ROUGE    CLEAR     52  28  39 SW10      30.16R
BOOTHVILLE     CLEAR     52  35  52 SW9       30.19R
BELLE CHASSE   CLEAR     44  34  67 SW8       30.18R
BOGALUSA*        N/A     50  31  48 SW5       30.15S
GALLIANO*      CLEAR     49  36  61 SW5       30.19R
NEW ROADS*       N/A     49  34  56 SW7       30.16S
GONZALES*        N/A     53  32  45 SW9       30.17S
HAMMOND*       CLEAR     46  32  57 S3        30.15S
HOUMA*         CLEAR     48  35  59 W3        30.19R
PORT FOURCHON* CLEAR     54  34  47 SW8       30.20R

$$

MSZ070-080>082-080200-
SOUTHERN MISSISSIPPI

CITY           SKY/WX    TMP DP  RH WIND       PRES   REMARKS
MCCOMB         CLEAR     51  28  41 W5        30.13R
GULFPORT       CLEAR     51  32  48 SW5       30.14S
BILOXI         CLEAR     51  40  64 SW8       30.13F
PASCAGOULA     CLEAR     47  35  63 CALM      30.14S
STENNIS ARPT*  CLEAR     43  28  56 CALM      30.16R

$$

COASTAL OBSERVATIONS
LAKE AND NEARSHORE STATIONS

STATION/POSITION TIME  TEMP    WIND        PRES    WAVE
                       AIR SEA DIR/SP/G            HT/PER
                 (UTC) (F)     (DEG/KT/KT) (MB)    (FT/S)
PASCAGOULA       0000   53     250/ 14/ 18 1020.0
WAVELAND YACHT   0000   53 55  230/  6/  8 1020.6
GRAND ISLE       0000   53 54  230/  4/  7 1021.8
NEW CANAL        0000   54 55  190/  1/  2 1020.5
SHELL BEACH      0000   53 56  200/  8/  8 1020.6

OFFSHORE STATIONS

STATION/POSITION TIME  TEMP    WIND        PRES    WAVE
                       AIR SEA DIR/SP/G            HT/PER
                 (UTC) (F)     (DEG/KT/KT) (MB)    (FT/S)

$$




USA.gov is the U.S. government's official web portal to all federal, state and local government web resources and services.